Home > Weather > Saint-Pierre > Past weeks

Flag for Réunion (French) Past Weather in Saint-Pierre, Réunion (French) — Yesterday and Last 2 Weeks

Now
79 °F

Clear.


Feels Like: 81 °F
Forecast: 70 / 76 °F
Wind: 24 mph from Southeast

Location: Saint Airport-Pierre

Current Time: May 31, 2016 at 11:50:30 AM

Latest Report: May 31, 2016 at 11:30 AM


Visibility: N/A

Pressure: 30.12 "Hg

Humidity: 65%

Dew Point: 66 °F

Location of Saint-PierreLocation

Past Weather in Saint-Pierre — Graph

°F

Saint-Pierre Temperature Yesterday

Maximum temperature yesterday: 79 °F (at 10:30 AM)
Minimum temperature yesterday: 64 °F (at 5:30 AM)
Average temperature yesterday: 72 °F

High & Low Weather Summary for the Past Weeks

 TemperatureHumidityPressure
High81 °F (May 16, 12:00 PM)94% (May 27, 2:30 AM)30.27 "Hg (May 27, 2:30 AM)
Low63 °F (May 20, 2:00 AM)41% (May 21, 10:30 AM)29.92 "Hg (May 17, 3:30 PM)
Average72 °F67%30.10 "Hg
* Reported May 16 10:00 AM — May 31 10:30 AM, Saint-Pierre, Weather by CustomWeather, © 2016

Note: Actual official high and low records may vary slightly from our data, if they occured in-between our weather recording intervals... More about our weather records

Advertising

Saint-Pierre Weather History for the Previous 24 Hours

Scroll right to see more
 ConditionsComfort  
Time TempWeatherWind HumidityBarometerVisibility
10:30 AM
Tue, May 31
79 °FClear.18 mph61%30.15 "HgN/A
10:00 AM77 °FClear.20 mph65%30.15 "HgN/A
9:30 AM79 °FClear.8 mph58%30.15 "HgN/A
9:00 AM77 °FClear.10 mph65%30.15 "HgN/A
8:30 AM73 °FClear.14 mph65%30.12 "HgN/A
8:00 AM70 °FClear.6 mph69%30.12 "HgN/A
7:30 AM72 °FClear.6 mph69%30.12 "HgN/A
7:00 AM68 °FClear.8 mph69%30.12 "HgN/A
6:30 AM70 °FPassing clouds.9 mph73%30.12 "HgN/A
6:00 AM68 °FPassing clouds.5 mph69%30.09 "HgN/A
5:30 AM66 °FClear.9 mph73%30.09 "HgN/A
5:00 AM70 °FPassing clouds.12 mph73%30.09 "HgN/A
4:30 AM72 °FPassing clouds.12 mph69%30.09 "HgN/A
4:00 AM72 °FClear.17 mph73%30.09 "HgN/A
3:30 AM68 °FClear.10 mph73%30.09 "HgN/A
3:00 AM72 °FClear.8 mph73%30.09 "HgN/A
2:30 AM68 °FClear.10 mph69%30.09 "HgN/A
2:00 AM68 °FPassing clouds.10 mph73%30.09 "HgN/A
1:30 AM70 °FClear.6 mph69%30.12 "HgN/A
1:00 AM66 °FClear.8 mph73%30.12 "HgN/A
12:30 AM68 °FClear.7 mph73%30.12 "HgN/A
12:00 AM66 °FClear.6 mph78%30.12 "HgN/A
11:30 PM
Mon, May 30
66 °FClear.3 mph78%30.12 "HgN/A
11:00 PM68 °FPassing clouds.7 mph73%30.12 "HgN/A
10:30 PM72 °FPassing clouds.9 mph73%30.12 "HgN/A
10:00 PM70 °FClear.9 mph73%30.12 "HgN/A
9:30 PM72 °FPassing clouds.7 mph73%30.12 "HgN/A
8:30 PM72 °FPassing clouds.7 mph73%30.12 "HgN/A
8:00 PM72 °FPassing clouds.6 mph73%30.09 "HgN/A
7:30 PM72 °FPassing clouds.6 mph69%30.09 "HgN/A
7:00 PM72 °FPassing clouds.8 mph69%30.09 "HgN/A
6:30 PM73 °FPassing clouds.10 mph69%30.07 "HgN/A
6:00 PM73 °FClear.12 mph65%30.07 "HgN/A
5:30 PM75 °FPassing clouds.14 mph65%30.04 "HgN/A
5:00 PM75 °FPassing clouds.21 mph65%30.04 "HgN/A
4:30 PM77 °FClear.21 mph61%30.04 "HgN/A
4:00 PM77 °FPassing clouds.23 mph61%30.04 "HgN/A
3:00 PM77 °FClear.26 mph65%30.04 "HgN/A
2:30 PM77 °FClear.25 mph65%30.01 "HgN/A
2:00 PM77 °FClear.26 mph65%30.04 "HgN/A
1:30 PM79 °FClear.26 mph58%30.04 "HgN/A
1:00 PM79 °FClear.29 mph61%30.04 "HgN/A
12:30 PM79 °FClear.25 mph58%30.07 "HgN/A
12:00 PM79 °FClear.24 mph61%30.07 "HgN/A
11:30 AM79 °FPassing clouds.24 mph58%30.07 "HgN/A
11:00 AM79 °FClear.18 mph58%30.09 "HgN/A
Weather by CustomWeather, © 2016

See weather overviewHow to use our weather pages